Grosse Ile, MI

4:00 AM EDT on October 21, 2017 (GMT -0400)
Grosse Ile Municipal

Weather History for KONZ - July, 2014

Change the Weather History Date:

Monday, July 21, 2014

  Actual Average (KDTW) Record (KDTW)
Temperature  
Mean Temperature 71 °F -  
Max Temperature 80 °F 83 °F 100 °F (2011)
Min Temperature 62 °F 63 °F 50 °F (1970)
Cooling Degree Days 6    
Growing Degree Days 21 (Base 50)    
Moisture  
Dew Point 64 °F    
Average Humidity 74    
Maximum Humidity 94    
Minimum Humidity 51    
Precipitation  
Precipitation 0.00 in - - ()
Sea Level Pressure  
Sea Level Pressure 30.11 in    
Wind  
Wind Speed 2 mph (SSE)    
Max Wind Speed 9 mph    
Max Gust Speed -    
Visibility 8 miles    
Events Fog    
Averages and records for this station are not official NWS values.
T = Trace of Precipitation, MM = Missing Value Source: NWS Daily Summary

Daily Weather History Graph

Daily Weather History Graph

Search for Another Location

Airport or City:

Trip Planner

Search our weather history database for the weather conditions in past years. The results will help you decide how hot, cold, wet, or windy it might be!

Date:

Astronomy

Jul. 21, 2014 Rise Set
Actual Time 6:15 AM EDT 9:02 PM EDT
Civil Twilight 5:42 AM EDT 9:35 PM EDT
Nautical Twilight 5:01 AM EDT 10:16 PM EDT
Astronomical Twilight 4:13 AM EDT 11:03 PM EDT
Moon 2:06 AM EDT 4:42 PM EDT
Length of Visible Light 15h 52m
Length of Day
14h 47m
Waning Crescent, 24% of the Moon is Illuminated
Jul 21
Waning Crescent
Jul 26
New
Aug 3
First Quarter
Aug 10
Full
Aug 17
Last Quarter

Hourly Weather History & Observations

Time (EDT) Temp. Heat Index Dew Point Humidity Pressure Visibility Wind Dir Wind Speed Gust Speed Precip Events Conditions
12:14 AM 69.8 °F - 64.4 °F 83% 30.07 in 10.0 mi Calm Calm - N/A   Clear
12:34 AM 68.0 °F - 64.4 °F 88% 30.07 in 10.0 mi Calm Calm - N/A   Clear
12:54 AM 68.0 °F - 64.4 °F 88% 30.07 in 7.0 mi Calm Calm - N/A   Clear
1:14 AM 66.2 °F - 64.4 °F 94% 30.06 in 7.0 mi Calm Calm - N/A   Clear
1:34 AM 69.8 °F - 64.4 °F 83% 30.06 in 7.0 mi Calm Calm - N/A   Clear
1:54 AM 69.8 °F - 66.2 °F 88% 30.06 in 5.0 mi Calm Calm - N/A   Clear
2:14 AM 66.2 °F - 64.4 °F 94% 30.06 in 5.0 mi Calm Calm - N/A   Clear
2:34 AM 68.0 °F - 64.4 °F 88% 30.06 in 7.0 mi Calm Calm - N/A   Clear
2:54 AM 68.0 °F - 64.4 °F 88% 30.06 in 5.0 mi Calm Calm - N/A   Clear
3:14 AM 66.2 °F - 64.4 °F 94% 30.06 in 7.0 mi Calm Calm - N/A   Clear
3:34 AM 66.2 °F - 62.6 °F 88% 30.06 in 7.0 mi Calm Calm - N/A   Clear
3:54 AM 66.2 °F - 62.6 °F 88% 30.06 in 1.0 mi Calm Calm - N/A   Mostly Cloudy
4:14 AM 64.4 °F - 62.6 °F 94% 30.07 in 5.0 mi Calm Calm - N/A   Clear
4:34 AM 64.4 °F - 60.8 °F 88% 30.07 in 5.0 mi Calm Calm - N/A   Clear
4:54 AM 64.4 °F - 60.8 °F 88% 30.08 in 2.5 mi Calm Calm - N/A   Clear
5:14 AM 64.4 °F - 60.8 °F 88% 30.09 in 0.5 mi Calm Calm - N/A Fog Fog
5:34 AM 64.4 °F - 62.6 °F 94% 30.09 in 2.5 mi Calm Calm - N/A   Clear
5:54 AM 62.6 °F - 60.8 °F 94% 30.10 in 4.0 mi Calm Calm - N/A   Scattered Clouds
6:14 AM 62.6 °F - 60.8 °F 94% 30.11 in 7.0 mi Calm Calm - N/A   Clear
6:34 AM 62.6 °F - 60.8 °F 94% 30.11 in 1.5 mi Calm Calm - N/A   Mist
6:54 AM 64.4 °F - 60.8 °F 88% 30.12 in 2.0 mi Calm Calm - N/A   Clear
7:14 AM 64.4 °F - 62.6 °F 94% 30.13 in 2.0 mi Calm Calm - N/A   Clear
7:34 AM 64.4 °F - 62.6 °F 94% 30.13 in 2.0 mi Calm Calm - N/A   Clear
7:54 AM 66.2 °F - 64.4 °F 94% 30.13 in 2.0 mi Calm Calm - N/A   Clear
8:14 AM 68.0 °F - 66.2 °F 94% 30.13 in 2.5 mi Calm Calm - N/A   Clear
8:34 AM 69.8 °F - 66.2 °F 88% 30.14 in 4.0 mi Calm Calm - N/A   Clear
8:54 AM 71.6 °F - 68.0 °F 88% 30.14 in 5.0 mi Calm Calm - N/A   Clear
9:34 AM 73.4 °F - 66.2 °F 78% 30.14 in 10.0 mi Calm Calm - N/A   Clear
9:54 AM 73.4 °F - 66.2 °F 78% 30.14 in 10.0 mi Calm Calm - N/A   Clear
10:14 AM 73.4 °F - 66.2 °F 78% 30.14 in 10.0 mi South 3.5 mph - N/A   Clear
10:34 AM 75.2 °F - 66.2 °F 73% 30.14 in 10.0 mi South 4.6 mph - N/A   Clear
10:54 AM 75.2 °F - 66.2 °F 73% 30.13 in 10.0 mi South 5.8 mph - N/A   Clear
11:14 AM 75.2 °F - 66.2 °F 73% 30.13 in 10.0 mi South 6.9 mph - N/A   Clear
11:34 AM 75.2 °F - 66.2 °F 73% 30.13 in 10.0 mi South 6.9 mph - N/A   Clear
11:54 AM 75.2 °F - 66.2 °F 73% 30.14 in 10.0 mi South 6.9 mph - N/A   Clear
12:14 PM 75.2 °F - 66.2 °F 73% 30.14 in 10.0 mi South 5.8 mph - N/A   Clear
12:34 PM 77.0 °F - 66.2 °F 69% 30.14 in 10.0 mi SSE 6.9 mph - N/A   Clear
12:54 PM 77.0 °F - 62.6 °F 61% 30.14 in 10.0 mi South 5.8 mph - N/A   Clear
1:14 PM 78.8 °F - 64.4 °F 61% 30.14 in 10.0 mi SSE 5.8 mph - N/A   Clear
1:34 PM 78.8 °F - 64.4 °F 61% 30.13 in 10.0 mi South 5.8 mph - N/A   Clear
1:54 PM 78.8 °F - 66.2 °F 65% 30.13 in 10.0 mi SSE 8.1 mph - N/A   Clear
2:14 PM 78.8 °F - 66.2 °F 65% 30.13 in 10.0 mi SSE 8.1 mph - N/A   Clear
2:34 PM 78.8 °F - 66.2 °F 65% 30.13 in 10.0 mi SSE 6.9 mph - N/A   Clear
2:54 PM 78.8 °F - 66.2 °F 65% 30.13 in 10.0 mi South 6.9 mph - N/A   Clear
3:14 PM 78.8 °F - 66.2 °F 65% 30.13 in 10.0 mi South 6.9 mph - N/A   Clear
3:34 PM 78.8 °F - 64.4 °F 61% 30.12 in 10.0 mi SSE 8.1 mph - N/A   Clear
3:54 PM 78.8 °F - 62.6 °F 57% 30.12 in 10.0 mi SSE 8.1 mph - N/A   Clear
4:14 PM 80.6 °F 82.3 °F 64.4 °F 58% 30.11 in 10.0 mi SSE 8.1 mph - N/A   Clear
4:34 PM 80.6 °F 81.5 °F 60.8 °F 51% 30.11 in 10.0 mi SSE 8.1 mph - N/A   Clear
4:54 PM 80.6 °F 81.5 °F 60.8 °F 51% 30.11 in 10.0 mi SSE 8.1 mph - N/A   Clear
5:14 PM 80.6 °F 81.5 °F 60.8 °F 51% 30.10 in 10.0 mi SSE 8.1 mph - N/A   Clear
5:34 PM 80.6 °F 82.3 °F 64.4 °F 58% 30.10 in 10.0 mi SSE 6.9 mph - N/A   Clear
5:54 PM 80.6 °F 82.3 °F 64.4 °F 58% 30.10 in 10.0 mi SSE 9.2 mph - N/A   Clear
6:14 PM 80.6 °F 81.8 °F 62.6 °F 54% 30.10 in 10.0 mi SSE 8.1 mph - N/A   Clear
6:34 PM 78.8 °F - 62.6 °F 57% 30.10 in 10.0 mi SSE 6.9 mph - N/A   Clear
6:54 PM 78.8 °F - 62.6 °F 57% 30.10 in 10.0 mi SSE 6.9 mph - N/A   Clear
7:14 PM 78.8 °F - 60.8 °F 54% 30.10 in 10.0 mi SSE 5.8 mph - N/A   Clear
7:34 PM 78.8 °F - 62.6 °F 57% 30.10 in 10.0 mi SSE 4.6 mph - N/A   Clear
7:54 PM 78.8 °F - 62.6 °F 57% 30.10 in 10.0 mi SE 4.6 mph - N/A   Clear
8:15 PM 77.0 °F - 62.6 °F 61% 30.10 in 10.0 mi SE 3.5 mph - N/A   Clear
8:34 PM 75.2 °F - 62.6 °F 65% 30.10 in 10.0 mi Calm Calm - N/A   Clear
8:54 PM 75.2 °F - 60.8 °F 61% 30.10 in 10.0 mi ESE 3.5 mph - N/A   Clear
9:14 PM 73.4 °F - 60.8 °F 65% 30.10 in 10.0 mi ESE 3.5 mph - N/A   Clear
9:34 PM 73.4 °F - 60.8 °F 65% 30.11 in 10.0 mi SSE 3.5 mph - N/A   Clear
9:54 PM 73.4 °F - 62.6 °F 69% 30.11 in 10.0 mi SE 3.5 mph - N/A   Clear
10:14 PM 73.4 °F - 62.6 °F 69% 30.12 in 10.0 mi SE 3.5 mph - N/A   Clear
10:34 PM 73.4 °F - 62.6 °F 69% 30.12 in 10.0 mi Calm Calm - N/A   Clear
10:54 PM 71.6 °F - 62.6 °F 73% 30.11 in 10.0 mi Calm Calm - N/A   Clear
11:14 PM 71.6 °F - 62.6 °F 73% 30.11 in 10.0 mi Calm Calm - N/A   Clear
11:34 PM 71.6 °F - 62.6 °F 73% 30.11 in 10.0 mi Calm Calm - N/A   Clear
11:54 PM 69.8 °F - 62.6 °F 78% 30.10 in 10.0 mi Calm Calm - N/A   Clear